Cairo, Egypt

3:27 PM EET on October 20, 2017 (GMT +0200)
Cairo International Airport

Weather History for HECA - May, 2014

Change the Weather History Date:

Friday, May 23, 2014

  Actual Average Record
Temperature  
Mean Temperature 76 °F -  
Max Temperature 86 °F 90 °F 98 °F (2001)
Min Temperature 66 °F 68 °F 62 °F (2004)
Cooling Degree Days 11    
Growing Degree Days 26 (Base 50)    
Moisture  
Dew Point 58 °F    
Average Humidity 56    
Maximum Humidity 78    
Minimum Humidity 21    
Precipitation  
Precipitation 0.00 in 0.00 in - ()
Sea Level Pressure  
Sea Level Pressure 29.85 in    
Wind  
Wind Speed 5 mph ()    
Max Wind Speed 14 mph    
Max Gust Speed -    
Visibility 6.0 miles    
Events      
Averages and records for this station are not official NWS values.
T = Trace of Precipitation, MM = Missing Value Source: Averaged Metar Reports

Daily Weather History Graph

Daily Weather History Graph

Search for Another Location

Airport or City:

Trip Planner

Search our weather history database for the weather conditions in past years. The results will help you decide how hot, cold, wet, or windy it might be!

Date:

Astronomy

May. 23, 2014 Rise Set
Actual Time 5:56 AM EEST 7:45 PM EEST
Civil Twilight 5:30 AM EEST 8:12 PM EEST
Nautical Twilight 4:57 AM EEST 8:44 PM EEST
Astronomical Twilight 4:23 AM EEST 9:18 PM EEST
Moon 2:14 AM EEST (5/23) 2:39 PM EEST (5/23)
Length of Visible Light 14h 42m
Length of Day
13h 49m
Waning Crescent, 30% of the Moon is Illuminated
May 23
Waning Crescent
May 28
New
Jun 5
First Quarter
Jun 13
Full
Jun 19
Last Quarter

Hourly Weather History & Observations

Time (EEST) Temp. Heat Index Dew Point Humidity Pressure Visibility Wind Dir Wind Speed Gust Speed Precip Events Conditions
12:00 AM 74 °F - 58 °F 49% 29.88 in 6 mi NNW 6.9 mph - -  
12:00 AM 73.4 °F - 59.0 °F 61% 29.86 in - NNW 6.9 mph - N/A   Clear
1:00 AM 71.6 °F - 59.0 °F 64% 29.86 in - North 5.8 mph - N/A   Clear
1:30 AM 71.6 °F - 59.0 °F 64% 29.86 in - North 5.8 mph - N/A   Clear
3:00 AM 69 °F - 60 °F 66% 29.85 in 6 mi NE 5.8 mph - -  
3:30 AM 68.0 °F - 59.0 °F 73% 29.83 in - NE 5.8 mph - N/A   Clear
4:00 AM 68.0 °F - 59.0 °F 73% 29.83 in - NE 5.8 mph - N/A   Clear
4:30 AM 68.0 °F - 59.0 °F 73% 29.83 in - NE 5.8 mph - N/A   Clear
5:00 AM 68.0 °F - 59.0 °F 73% 29.83 in - NE 5.8 mph - N/A   Clear
6:00 AM 66.2 °F - 59.0 °F 78% 29.83 in - NNE 4.6 mph - N/A   Clear
7:30 AM 69.8 °F - 62.6 °F 78% 29.86 in - Calm Calm - N/A   Clear
9:30 AM 73.4 °F - 62.6 °F 69% 29.86 in - Calm Calm - N/A   Clear
10:00 AM 75.2 °F - 62.6 °F 65% 29.86 in - Calm Calm - N/A   Clear
10:30 AM 77.0 °F - 60.8 °F 57% 29.86 in - Calm Calm - N/A   Clear
11:30 AM 78.8 °F - 59.0 °F 51% 29.86 in - WNW 3.5 mph - N/A   Clear
12:00 PM 78.8 °F - 59.0 °F 51% 29.86 in - NW 4.6 mph - N/A   Clear
12:30 PM 82.4 °F 82.5 °F 59.0 °F 45% 29.86 in - NW 4.6 mph - N/A   Clear
1:00 PM 82.4 °F 82.5 °F 59.0 °F 45% 29.86 in - NW 4.6 mph - N/A   Clear
1:30 PM 82.4 °F 82.5 °F 59.0 °F 45% 29.83 in - NW 4.6 mph - N/A   Clear
3:00 PM 85 °F - 51 °F 21% 29.82 in 6 mi NW 6.9 mph - -  
3:30 PM 86.0 °F - 51.8 °F 31% 29.83 in - NW 6.9 mph - N/A   Clear
5:00 PM 86.0 °F - 51.8 °F 31% 29.80 in - NW 8.1 mph - N/A   Clear
6:00 PM 86.0 °F - 51.8 °F 31% 29.80 in - North 9.2 mph - N/A   Clear
8:00 PM 84.2 °F - 51.8 °F 33% 29.83 in - North 8.1 mph - N/A   Clear
9:00 PM 80.6 °F 81.5 °F 60.8 °F 51% 29.86 in - North 13.8 mph - N/A   Clear
11:00 PM 75.2 °F - 62.6 °F 65% 29.92 in - North 8.1 mph - N/A   Clear